ECHOSTAR 4

导读

ECHOSTAR 4是美国EchoStar公司运营的一颗地球静止轨道通信卫星,于1998年5月7日发射入轨,属于EchoStar卫星星座的一员。该卫星主要为北美地区提供直接到户的卫星电视广播服务,依托高功率转发器技术保障信号稳定传输,支撑主流卫星电视平台运营,是EchoStar星座早期推动卫星电视普及的重要空间节点,在卫星通信发展历程中发挥了作用。

基本信息
目录编号:
25331
目录名称:
ECHOSTAR 4
国际标识:
1998-028A
轨道中心:
EARTH
卫星名称:
ECHOSTAR 4
卫星全名:
--
卫星状态:
在轨 (已飞行10308 天)
发射日期:
1998-05-07 UTC
国别 :
美国 (US)
星等 :
--
轨道信息
数据来源 国际轨道数据 AOE轨道数据
星历时间 2026-07-27T08:41:20+0800
21小时前
查看轨道信息
2026-07-25T05:00:00+0800
3天前
查看轨道信息
半长轴 42540.055km 42539.797km
偏心率 0.0009858 0.0009773
轨道倾角 11.796° 11.792°
近地点辐角 287.042° 288.747°
升交点赤经 30.905° 30.921°
平近点角 83.616° 34.714°
近地点 36119.982km 36120.085km
远地点 36203.854km 36203.235km
周期 1455.314分钟 1455.301分钟
每日圈数 0.989477 0.989486
详细信息
使用方式:
暂无
2D轨道图
3D轨道图
轨道高度分析图
轨道倾角分析图
轨道综合分析图
查看轨道综合分析图